JKR95 KEVV-KMLI

Flight info

Callsign JKR95
Flight time N/A
Altitude 38000
Route AXC
Aircraft FA50/M-SDFGHIM1RWXY/H

Departure

Time 2026-05-08 19:40
Airport Evansville Regional Airport (KEVV)

Arrival

Time N/A
Airport Quad City International Airport (KMLI)
Time Latitude Longitude Altitude Speed Heading
2026-05-08 19:13 38.03641 -87.53642 426 ft 0 kts 180°
2026-05-08 19:34 38.03638 -87.53606 426 ft 14 kts 34°
2026-05-08 19:34 38.03694 -87.53479 426 ft 19 kts 87°
2026-05-08 19:34 38.03689 -87.53301 426 ft 20 kts 88°
2026-05-08 19:35 38.03714 -87.53194 426 ft 0 kts 46°
2026-05-08 19:35 38.03749 -87.53194 426 ft 10 kts 354°
2026-05-08 19:35 38.03846 -87.53169 426 ft 19 kts 36°
2026-05-08 19:36 38.03976 -87.53041 426 ft 29 kts 38°
2026-05-08 19:36 38.04147 -87.52869 426 ft 31 kts 32°
2026-05-08 19:36 38.04319 -87.52702 426 ft 31 kts 36°
2026-05-08 19:36 38.04485 -87.52515 426 ft 32 kts 46°
2026-05-08 19:37 38.04635 -87.52296 426 ft 32 kts 52°
2026-05-08 19:37 38.04782 -87.52073 426 ft 33 kts 44°
2026-05-08 19:37 38.04966 -87.51888 426 ft 33 kts 39°
2026-05-08 19:37 38.05152 -87.51702 426 ft 34 kts 37°
2026-05-08 19:38 38.05341 -87.51513 426 ft 26 kts 32°
2026-05-08 19:38 38.05373 -87.51439 426 ft 7 kts 124°
2026-05-08 19:38 38.05331 -87.51375 426 ft 4 kts 139°
2026-05-08 19:38 38.05299 -87.51379 426 ft 5 kts 221°
2026-05-08 19:39 38.05288 -87.51391 426 ft 0 kts 219°
2026-05-08 19:39 38.05271 -87.51409 426 ft 19 kts 219°
2026-05-08 19:39 38.04971 -87.51706 426 ft 87 kts 217°
2026-05-08 19:39 38.04357 -87.52313 556 ft 126 kts 218°
2026-05-08 19:40 38.03690 -87.53045 1100 ft 136 kts 220°
2026-05-08 19:40 38.02938 -87.53909 1573 ft 158 kts 221°
2026-05-08 19:40 38.02061 -87.54893 2206 ft 176 kts 220°
2026-05-08 19:40 38.01120 -87.55984 2896 ft 193 kts 230°
2026-05-08 19:41 38.00681 -87.57599 3790 ft 203 kts 262°
2026-05-08 19:41 38.00610 -87.59360 4751 ft 203 kts 266°
2026-05-08 19:41 38.00549 -87.61111 5699 ft 204 kts 266°
2026-05-08 19:41 38.00464 -87.62897 6649 ft 205 kts 266°
2026-05-08 19:42 38.00356 -87.64666 7638 ft 205 kts 266°
2026-05-08 19:42 38.00644 -87.66364 8523 ft 209 kts 304°
2026-05-08 19:42 38.01799 -87.67469 9551 ft 213 kts 327°
2026-05-08 19:42 38.03089 -87.68321 10538 ft 212 kts 326°
2026-05-08 19:43 38.04402 -87.69195 11377 ft 217 kts 327°
2026-05-08 19:43 38.05738 -87.70087 12231 ft 221 kts 326°
2026-05-08 19:43 38.07088 -87.70990 13102 ft 221 kts 326°
2026-05-08 19:43 38.08535 -87.71971 12833 ft 271 kts 326°
2026-05-08 19:44 38.10399 -87.73218 12513 ft 316 kts 327°
2026-05-08 19:44 38.12275 -87.74466 13708 ft 305 kts 327°
2026-05-08 19:44 38.14159 -87.75732 14424 ft 309 kts 327°
2026-05-08 19:44 38.16086 -87.77026 15168 ft 312 kts 326°
2026-05-08 19:45 38.18008 -87.78319 15891 ft 315 kts 327°
2026-05-08 19:45 38.19969 -87.79637 16536 ft 320 kts 327°
2026-05-08 19:45 38.21922 -87.80949 17212 ft 322 kts 326°
2026-05-08 19:45 38.23914 -87.82292 17852 ft 326 kts 327°
2026-05-08 19:46 38.25934 -87.83652 18638 ft 328 kts 326°
2026-05-08 19:46 38.27958 -87.85015 19362 ft 331 kts 326°
2026-05-08 19:46 38.32085 -87.87801 20617 ft 340 kts 326°
2026-05-08 19:47 38.34173 -87.89210 21276 ft 342 kts 326°
2026-05-08 19:47 38.36288 -87.90638 21865 ft 346 kts 326°
2026-05-08 19:47 38.38426 -87.92085 22439 ft 350 kts 326°
2026-05-08 19:47 38.40601 -87.93555 23065 ft 352 kts 325°
2026-05-08 19:48 38.42039 -87.94530 23382 ft 356 kts 326°